[[[{"header":{"parameterUnit":"kt","parameterCategory":2,"dx":1,"dy":1,"la1":30.253999710083008,"la2":30.299108505249023,"lo1":-89.0895004272461,"lo2":-89.04439544677734,"nx":28,"ny":28,"refTime":"2022-10-07T21:00:00:Z","depth":0,"parameterNumber":1,"parameterNumberName":"U-component_of_WINDS"},"data":[-1.7846,-1.7806,-1.7809,-1.7763,-1.7759,-1.7727,-1.7717,-1.7704,-1.7695,-1.7658,-1.7637,-1.7637,-1.7629,-1.7604,-1.7582,-1.7582,-1.757,-1.7552,-1.7554,-1.7636,-1.7647,-1.7658,-1.7666,-1.755,-1.755,-1.7467,-1.7467,-1.7466,-1.7898,-1.7893,-1.7871,-1.7852,-1.7833,-1.7852,-1.7838,-1.782,-1.7792,-1.7782,-1.7763,-1.7731,-1.7707,-1.7706,-1.7683,-1.7663,-1.7669,-1.7655,-1.7654,-1.7652,-1.774,-1.7749,-1.765,-1.765,-1.765,-1.765,-1.765,-1.765,-1.7992,-1.7969,-1.796,-1.7937,-1.7929,-1.7916,-1.7894,-1.7895,-1.7874,-1.7852,-1.7862,-1.7831,-1.7822,-1.7798,-1.7792,-1.7766,-1.7783,-1.7769,-1.7764,-1.7759,-1.775,-1.7859,-1.7764,-1.7764,-1.7765,-1.7765,-1.7765,0,-1.8061,-1.8065,-1.8047,-1.8028,-1.8012,-1.7998,-1.7987,-1.7974,-1.7987,-1.797,-1.7944,-1.793,-1.7903,-1.7879,-1.7861,-1.7857,-1.7874,-1.7879,-1.7868,-1.7858,-1.7851,-1.7848,-1.7987,-1.7881,-1.7882,-1.7883,-1.7883,-1.7884,-1.8152,-1.8127,-1.8122,-1.8107,-1.8103,-1.8081,-1.8068,-1.8083,-1.8069,-1.8057,-1.8036,-1.8014,-1.7996,-1.7956,-1.7958,-1.7939,-1.7946,-1.7904,-1.7943,-1.7935,-1.7938,-1.7937,-1.7932,-1.7894,-1.7893,-1.7892,-1.7891,0,-1.8201,-1.821,-1.8173,-1.8172,-1.817,-1.8143,-1.8141,-1.812,-1.8125,-1.8095,-1.8089,-1.8097,-1.8072,-1.8082,-1.8059,-1.8064,-1.8012,-1.8024,-1.8014,-1.8015,-1.7974,-1.7975,-1.7851,-1.7833,-1.7959,-1.7958,-1.7957,0,-1.8279,-1.8247,-1.8261,-1.824,-1.8203,-1.822,-1.8183,-1.8184,-1.8178,-1.8155,-1.8179,-1.8157,-1.8174,-1.8153,-1.8162,-1.8123,-1.8121,-1.8121,-1.8122,-1.8116,-1.8115,-1.8105,-1.8108,-1.8135,-1.8136,-1.8136,-1.8137,0,-1.8352,-1.8326,-1.8291,-1.8286,-1.8283,-1.8266,-1.8264,-1.826,-1.8248,-1.8236,-1.8228,-1.8213,-1.8203,-1.8191,-1.8201,-1.8226,-1.8156,-1.8194,-1.8156,-1.8155,-1.8137,-1.8137,-1.8028,-1.8138,-1.8138,-1.8138,-1.8138,0,-1.8417,-1.8405,-1.8356,-1.8353,-1.8345,-1.8324,-1.8309,-1.8294,-1.8287,-1.8291,-1.8282,-1.8299,-1.827,-1.8305,-1.8265,-1.8294,-1.8283,-1.8282,-1.8279,-1.8274,-1.8311,-1.8242,-1.8142,-1.8129,-1.8272,-1.8273,-1.8274,0,-1.8494,-1.8449,-1.8464,-1.8418,-1.8398,-1.8423,-1.84,-1.8395,-1.8399,-1.8382,-1.8387,-1.8368,-1.8398,-1.8393,-1.8372,-1.8375,-1.8338,-1.8382,-1.8351,-1.835,-1.8346,-1.8255,-1.8235,-1.8164,-1.8289,-1.8287,-1.8286,0,-1.8556,-1.8555,-1.8547,-1.854,-1.8539,-1.8524,-1.8498,-1.8484,-1.8471,-1.8466,-1.8442,-1.842,-1.8438,-1.8432,-1.8445,-1.8423,-1.8364,-1.8447,-1.8447,-1.8426,-1.83,-1.8279,-1.8268,-1.8377,-1.8375,-1.8374,-1.8298,0,-1.8641,-1.8623,-1.8601,-1.8592,-1.8583,-1.8557,-1.857,-1.8558,-1.8571,-1.8576,-1.8545,-1.8547,-1.8533,-1.8525,-1.8539,-1.8486,-1.8495,-1.8518,-1.855,-1.8492,-1.8467,-1.8457,-1.8586,-1.8587,-1.8588,-1.8588,0,0,-1.8711,-1.8685,-1.8704,-1.868,-1.8673,-1.8702,-1.8673,-1.867,-1.8664,-1.8657,-1.8676,-1.8644,-1.8645,-1.8605,-1.8589,-1.8586,-1.8575,-1.8596,-1.8521,-1.8513,-1.8506,-1.8479,-1.8469,-1.859,-1.859,-1.8591,-1.8591,0,-1.8744,-1.8747,-1.8719,-1.8717,-1.8715,-1.8723,-1.8716,-1.8719,-1.8722,-1.8694,-1.8717,-1.8701,-1.8678,-1.8673,-1.8668,-1.8602,-1.862,-1.8598,-1.8556,-1.853,-1.8521,-1.8513,-1.8485,-1.8475,-1.8593,-1.8593,-1.8593,0,-1.8804,-1.8806,-1.8796,-1.8785,-1.8785,-1.8766,-1.8803,-1.8784,-1.8769,-1.8803,-1.8775,-1.8778,-1.8775,-1.8739,-1.8723,-1.874,-1.8658,-1.869,-1.8684,-1.8682,-1.8657,-1.8646,-1.8637,-1.8759,-1.8759,-1.876,0,0,-1.883,-1.8815,-1.8824,-1.8794,-1.8791,-1.8804,-1.8797,-1.8809,-1.8807,-1.8806,-1.881,-1.8807,-1.8792,-1.8783,-1.8771,-1.8731,-1.8729,-1.8709,-1.8701,-1.8695,-1.8689,-1.8662,-1.8652,-1.8762,-1.8762,-1.8762,0,0,-1.8843,-1.8852,-1.8866,-1.8833,-1.883,-1.8837,-1.8817,-1.8834,-1.8825,-1.8829,-1.885,-1.885,-1.8817,-1.8819,-1.8843,-1.8782,-1.8815,-1.8809,-1.8781,-1.8771,-1.8764,-1.8762,-1.8881,0,0,0,0,0,-1.8884,-1.8851,-1.8863,-1.886,-1.8848,-1.883,-1.8828,-1.8844,-1.8865,-1.8849,-1.8855,-1.8876,-1.8835,-1.8857,-1.8853,-1.8826,-1.8787,-1.8782,-1.8778,-1.8732,-1.8722,-1.8713,0,0,0,0,0,0,-1.8883,-1.8879,-1.8864,-1.8869,-1.8867,-1.8831,-1.887,-1.8874,-1.8867,-1.8872,-1.8875,-1.8877,-1.889,-1.886,-1.8857,-1.883,-1.8883,-1.8785,-1.8781,-1.8778,-1.8729,-1.872,-1.8713,0,0,0,0,0,-1.8882,-1.8879,-1.8857,-1.887,-1.8868,-1.8881,-1.8872,-1.8875,-1.887,-1.8881,-1.8883,-1.8883,-1.8889,-1.8887,-1.8858,-1.8831,-1.8885,-1.8884,-1.8782,-1.878,-1.8777,-1.8725,0,0,0,0,0,0,-1.8882,-1.8882,-1.8857,-1.8857,-1.8884,-1.8883,-1.8883,-1.8876,-1.888,-1.8882,-1.889,-1.8894,-1.8887,-1.8886,-1.8884,-1.883,-1.8887,-1.8886,-1.8885,-1.878,-1.8778,-1.8776,0,0,0,0,0,0,-1.8884,-1.8881,-1.8857,-1.8874,-1.8876,-1.8885,-1.8885,-1.8865,-1.888,-1.889,-1.8892,-1.8892,-1.889,-1.8886,-1.8884,-1.8852,-1.8889,-1.8888,-1.8887,-1.8886,-1.8778,-1.8777,0,0,0,0,0,0,-1.8883,-1.8881,-1.8874,-1.8876,-1.8878,-1.8877,-1.8867,-1.8854,-1.8895,-1.8889,-1.8899,-1.8901,-1.8889,-1.8888,-1.8884,-1.8852,-1.8852,-1.8889,-1.8888,-1.8887,-1.8887,0,0,0,0,0,0,0,-1.8882,-1.8891,-1.8857,-1.8877,-1.8879,-1.8855,-1.8855,-1.8855,-1.8895,-1.8897,-1.8898,-1.89,-1.8897,-1.8896,-1.8894,-1.8852,0,0,-1.8889,-1.8889,0,0,0,0,0,0,0,0,-1.8892,-1.8892,-1.8857,-1.8857,-1.8857,-1.8855,-1.8855,-1.8855,-1.8895,-1.8897,-1.8898,-1.8899,-1.8897,-1.8896,-1.8894,0,0,0,0,0,0,0,0,0,0,0,0,0,0,0,-1.8857,-1.8857,0,-1.8855,-1.8855,-1.8855,-1.8896,-1.8897,-1.8898,-1.8899,-1.8897,-1.8895,-1.8894,0,0,0,0,0,0,0,0,0,0,0,0,0,0,0,0,0,0,0,0,0,0,0,0,0,0,0,0,0,0,0,0,0,0,0,0,0,0,0,0,0,0,0,0,0,0,0,0,0,0,0,0,0,0,0,0,0,0,0,0,0,0,0,0,0,0,0,0,0]}],[{"header":{"parameterUnit":"kt","parameterCategory":2,"dx":1,"dy":1,"la1":30.253999710083008,"la2":30.299108505249023,"lo1":-89.0895004272461,"lo2":-89.04439544677734,"nx":28,"ny":28,"refTime":"2022-10-07T21:00:00:Z","depth":0,"parameterNumber":2,"parameterNumberName":"V-component_of_WINDS"},"data":[-6.4906,-6.4949,-6.4966,-6.5021,-6.5045,-6.5084,-6.5103,-6.5129,-6.5153,-6.52,-6.5229,-6.5248,-6.5276,-6.5312,-6.5343,-6.535,-6.5361,-6.5364,-6.5371,-6.5345,-6.5342,-6.534,-6.5331,-6.5367,-6.5367,-6.5395,-6.5396,-6.5396,-6.4884,-6.491,-6.4944,-6.4989,-6.5018,-6.5025,-6.506,-6.5083,-6.5117,-6.5147,-6.5177,-6.5218,-6.5252,-6.5279,-6.5313,-6.5331,-6.5334,-6.5338,-6.5336,-6.534,-6.5314,-6.5305,-6.5335,-6.5335,-6.5335,-6.5335,-6.5335,-6.5335,-6.4849,-6.4874,-6.4912,-6.4949,-6.4976,-6.5005,-6.5031,-6.5055,-6.5087,-6.5127,-6.5139,-6.5177,-6.5208,-6.5256,-6.5276,-6.5304,-6.5301,-6.531,-6.5312,-6.5313,-6.5312,-6.5266,-6.531,-6.531,-6.531,-6.531,-6.531,0,-6.4828,-6.4841,-6.4876,-6.4915,-6.4943,-6.4975,-6.5006,-6.5022,-6.5051,-6.5076,-6.5113,-6.5137,-6.5182,-6.5216,-6.5252,-6.527,-6.5276,-6.5279,-6.5285,-6.5279,-6.5269,-6.5273,-6.5227,-6.5277,-6.5277,-6.5277,-6.5277,-6.5277,-6.4792,-6.482,-6.4867,-6.4889,-6.4911,-6.4945,-6.4969,-6.4993,-6.5016,-6.5056,-6.5076,-6.5112,-6.5142,-6.5196,-6.522,-6.5253,-6.5256,-6.5273,-6.526,-6.5254,-6.5254,-6.5251,-6.5253,-6.5274,-6.5275,-6.5275,-6.5275,0,-6.477,-6.4798,-6.4846,-6.489,-6.4901,-6.4928,-6.4964,-6.4989,-6.5009,-6.5045,-6.5055,-6.5085,-6.5119,-6.5141,-6.5185,-6.5194,-6.5234,-6.5237,-6.5223,-6.5224,-6.5241,-6.5238,-6.5294,-6.5302,-6.5267,-6.5268,-6.5268,0,-6.4749,-6.4784,-6.4824,-6.485,-6.4889,-6.4914,-6.4951,-6.4972,-6.5001,-6.503,-6.5043,-6.5069,-6.5094,-6.5122,-6.5137,-6.5174,-6.5182,-6.5191,-6.5194,-6.5189,-6.5188,-6.5199,-6.5196,-6.5202,-6.5202,-6.5202,-6.5202,0,-6.471,-6.4773,-6.4817,-6.4835,-6.4885,-6.4904,-6.4924,-6.4957,-6.4979,-6.5011,-6.5025,-6.506,-6.5079,-6.5105,-6.5123,-6.5114,-6.5169,-6.516,-6.5178,-6.5177,-6.5187,-6.5186,-6.5232,-6.5201,-6.5201,-6.5201,-6.5201,0,-6.4697,-6.4733,-6.4792,-6.4834,-6.4849,-6.4877,-6.4914,-6.4944,-6.4977,-6.4989,-6.5014,-6.5025,-6.506,-6.5049,-6.5097,-6.5079,-6.5096,-6.5108,-6.511,-6.5113,-6.5099,-6.512,-6.5163,-6.5167,-6.5117,-6.5117,-6.5116,0,-6.4643,-6.4712,-6.4734,-6.479,-6.4824,-6.4838,-6.4869,-6.4899,-6.4917,-6.4947,-6.4967,-6.5,-6.4997,-6.501,-6.5031,-6.5052,-6.5075,-6.505,-6.5088,-6.5089,-6.5077,-6.5118,-6.5118,-6.5152,-6.5107,-6.5108,-6.5109,0,-6.4605,-6.4668,-6.4676,-6.4698,-6.4744,-6.4773,-6.4809,-6.4849,-6.4867,-6.49,-6.4929,-6.4977,-6.4976,-6.4997,-6.5009,-6.503,-6.506,-6.5025,-6.5026,-6.5029,-6.5106,-6.5105,-6.5111,-6.5063,-6.5064,-6.5065,-6.5102,0,-6.4576,-6.4615,-6.464,-6.4688,-6.4715,-6.4751,-6.4778,-6.4801,-6.4812,-6.4831,-6.4875,-6.4904,-6.4942,-6.4955,-6.4964,-6.5006,-6.5001,-6.5,-6.4989,-6.5016,-6.5029,-6.5034,-6.4968,-6.4968,-6.4968,-6.4968,0,0,-6.4517,-6.4573,-6.4597,-6.4634,-6.4658,-6.4671,-6.4708,-6.4732,-6.4779,-6.4794,-6.4789,-6.486,-6.4883,-6.4933,-6.4944,-6.496,-6.4968,-6.4958,-6.5003,-6.5007,-6.5011,-6.5024,-6.5029,-6.4967,-6.4967,-6.4967,-6.4967,0,-6.4512,-6.4541,-6.4579,-6.4606,-6.4646,-6.4666,-6.4675,-6.4716,-6.473,-6.4774,-6.4782,-6.4811,-6.4868,-6.4891,-6.4911,-6.4954,-6.4956,-6.4963,-6.4978,-6.5001,-6.5005,-6.5009,-6.5022,-6.5027,-6.4967,-6.4967,-6.4967,0,-6.4478,-6.4511,-6.4532,-6.4589,-6.4615,-6.465,-6.4646,-6.4684,-6.4709,-6.4719,-6.4762,-6.4781,-6.4815,-6.486,-6.4881,-6.4876,-6.4943,-6.4927,-6.4929,-6.4931,-6.4954,-6.4959,-6.4964,-6.4906,-6.4905,-6.4905,0,0,-6.4469,-6.4506,-6.4548,-6.459,-6.4606,-6.4635,-6.4656,-6.4669,-6.4701,-6.4714,-6.4739,-6.4768,-6.4801,-6.4822,-6.4854,-6.49,-6.4907,-6.4919,-6.4922,-6.4924,-6.4927,-6.4951,-6.4956,-6.4904,-6.4904,-6.4904,0,0,-6.4464,-6.4516,-6.4521,-6.4573,-6.4605,-6.4647,-6.467,-6.4677,-6.4709,-6.4707,-6.4728,-6.4736,-6.4779,-6.4797,-6.4779,-6.485,-6.4839,-6.4844,-6.4836,-6.484,-6.4843,-6.4837,-6.4777,0,0,0,0,0,-6.4473,-6.451,-6.4514,-6.4527,-6.4598,-6.4645,-6.4654,-6.4673,-6.4665,-6.4683,-6.4705,-6.4707,-6.4791,-6.4776,-6.4786,-6.4806,-6.4889,-6.4892,-6.4894,-6.4895,-6.4899,-6.4903,0,0,0,0,0,0,-6.4479,-6.4494,-6.4513,-6.4557,-6.4573,-6.4644,-6.4635,-6.4641,-6.4664,-6.4664,-6.4703,-6.4708,-6.4724,-6.4771,-6.4781,-6.4799,-6.4773,-6.489,-6.4892,-6.4894,-6.4897,-6.49,-6.4903,0,0,0,0,0,-6.4483,-6.4496,-6.4604,-6.4556,-6.457,-6.4605,-6.4633,-6.4639,-6.4656,-6.469,-6.4696,-6.4669,-6.4724,-6.4733,-6.4777,-6.4794,-6.4767,-6.477,-6.4891,-6.4893,-6.4895,-6.4898,0,0,0,0,0,0,-6.4486,-6.4499,-6.4607,-6.4612,-6.4545,-6.4601,-6.4611,-6.4636,-6.4682,-6.4688,-6.4657,-6.4656,-6.4724,-6.4731,-6.4738,-6.4791,-6.4762,-6.4765,-6.4767,-6.4893,-6.4894,-6.4895,0,0,0,0,0,0,-6.4493,-6.4503,-6.461,-6.4594,-6.4597,-6.4597,-6.4606,-6.4646,-6.4682,-6.4646,-6.4647,-6.4656,-6.4713,-6.473,-6.4736,-6.4797,-6.4758,-6.4761,-6.4763,-6.4765,-6.4894,-6.4895,0,0,0,0,0,0,-6.4497,-6.4507,-6.4593,-6.4595,-6.4598,-6.4653,-6.4632,-6.4703,-6.4671,-6.4643,-6.4669,-6.4667,-6.4712,-6.4718,-6.4734,-6.4793,-6.4796,-6.4758,-6.476,-6.4762,-6.4763,0,0,0,0,0,0,0,-6.4501,-6.4436,-6.4579,-6.4596,-6.4599,-6.4657,-6.4658,-6.4659,-6.4671,-6.467,-6.4669,-6.4668,-6.4738,-6.4742,-6.4746,-6.479,0,0,-6.4757,-6.4759,0,0,0,0,0,0,0,0,-6.4432,-6.4435,-6.4579,-6.458,-6.4581,-6.4657,-6.4658,-6.4659,-6.4671,-6.467,-6.4669,-6.4668,-6.4739,-6.4742,-6.4745,0,0,0,0,0,0,0,0,0,0,0,0,0,0,0,-6.4579,-6.458,0,-6.4657,-6.4658,-6.4659,-6.4671,-6.467,-6.4669,-6.4669,-6.474,-6.4743,-6.4745,0,0,0,0,0,0,0,0,0,0,0,0,0,0,0,0,0,0,0,0,0,0,0,0,0,0,0,0,0,0,0,0,0,0,0,0,0,0,0,0,0,0,0,0,0,0,0,0,0,0,0,0,0,0,0,0,0,0,0,0,0,0,0,0,0,0,0,0,0]}]]]